TimeCST,TemperatureF,Dew PointF,Humidity,Sea Level PressureIn,VisibilityMPH,Wind Direction,Wind SpeedMPH,Gust SpeedMPH,PrecipitationIn,Events,Conditions,WindDirDegrees,DateUTC
12:15 AM,53.6,50.0,88,29.62,10.0,SE,5.8,-,N/A,,Overcast,130,2013-12-04 06:15:00
12:35 AM,51.8,50.0,94,29.61,10.0,SE,4.6,-,N/A,,Overcast,130,2013-12-04 06:35:00
12:55 AM,51.8,50.0,94,29.62,7.0,SSE,5.8,-,N/A,,Overcast,150,2013-12-04 06:55:00
1:15 AM,51.8,50.0,94,29.61,10.0,SE,5.8,-,N/A,,Overcast,130,2013-12-04 07:15:00
1:35 AM,51.8,50.0,94,29.60,7.0,ESE,4.6,-,N/A,,Overcast,120,2013-12-04 07:35:00
1:55 AM,51.8,50.0,94,29.61,10.0,SE,3.5,-,N/A,,Scattered Clouds,140,2013-12-04 07:55:00
2:15 AM,51.8,50.0,94,29.60,7.0,SE,4.6,-,N/A,,Mostly Cloudy,130,2013-12-04 08:15:00
2:35 AM,51.8,50.0,94,29.61,7.0,SSE,5.8,-,N/A,,Overcast,150,2013-12-04 08:35:00
2:55 AM,51.8,50.0,94,29.60,10.0,SSE,5.8,-,N/A,,Overcast,150,2013-12-04 08:55:00
3:15 AM,51.8,48.2,88,29.59,10.0,SSE,4.6,-,N/A,,Overcast,150,2013-12-04 09:15:00
3:35 AM,51.8,46.4,82,29.59,10.0,SE,4.6,-,N/A,,Overcast,140,2013-12-04 09:35:00
3:55 AM,51.8,46.4,82,29.60,10.0,SSE,4.6,-,N/A,,Scattered Clouds,160,2013-12-04 09:55:00
4:15 AM,50.0,46.4,87,29.60,10.0,SE,4.6,-,N/A,,Clear,140,2013-12-04 10:15:00
4:35 AM,50.0,46.4,87,29.60,10.0,SE,4.6,-,N/A,,Clear,140,2013-12-04 10:35:00
4:55 AM,48.2,46.4,93,29.59,10.0,ESE,4.6,-,N/A,,Clear,120,2013-12-04 10:55:00
5:15 AM,46.4,44.6,93,29.58,7.0,ESE,5.8,-,N/A,,Clear,110,2013-12-04 11:15:00
5:35 AM,46.4,44.6,93,29.58,7.0,SE,6.9,-,N/A,,Clear,140,2013-12-04 11:35:00
5:55 AM,46.4,46.4,100,29.59,7.0,SE,6.9,-,N/A,,Clear,140,2013-12-04 11:55:00
6:15 AM,46.4,44.6,93,29.58,5.0,ESE,6.9,-,N/A,,Clear,110,2013-12-04 12:15:00
6:35 AM,46.4,44.6,93,29.58,4.0,ESE,9.2,-,N/A,,Clear,120,2013-12-04 12:35:00
6:55 AM,46.4,46.4,100,29.58,4.0,SE,8.1,-,N/A,,Clear,130,2013-12-04 12:55:00
7:15 AM,46.4,46.4,100,29.58,4.0,ESE,8.1,-,N/A,,Clear,120,2013-12-04 13:15:00
7:35 AM,48.2,46.4,93,29.58,5.0,SE,9.2,-,N/A,,Clear,130,2013-12-04 13:35:00
7:55 AM,48.2,46.4,93,29.57,5.0,ESE,8.1,-,N/A,,Clear,120,2013-12-04 13:55:00
8:15 AM,50.0,48.2,94,29.56,5.0,ESE,11.5,-,N/A,,Clear,120,2013-12-04 14:15:00
8:35 AM,50.0,50.0,100,29.58,5.0,SSE,9.2,-,N/A,,Clear,150,2013-12-04 14:35:00
8:55 AM,51.8,50.0,94,29.58,7.0,SE,11.5,-,N/A,,Clear,140,2013-12-04 14:55:00
9:15 AM,53.6,50.0,88,29.58,7.0,SSE,9.2,-,N/A,,Clear,150,2013-12-04 15:15:00
9:35 AM,53.6,50.0,88,29.59,10.0,SE,10.4,-,N/A,,Clear,140,2013-12-04 15:35:00
9:55 AM,53.6,50.0,88,29.59,10.0,SSE,9.2,-,N/A,,Clear,150,2013-12-04 15:55:00
10:15 AM,55.4,50.0,82,29.60,10.0,SSE,11.5,-,N/A,,Clear,150,2013-12-04 16:15:00
10:35 AM,59.0,51.8,77,29.59,10.0,SSE,10.4,-,N/A,,Clear,160,2013-12-04 16:35:00
10:55 AM,60.8,50.0,68,29.59,10.0,SSW,13.8,19.6,N/A,,Clear,200,2013-12-04 16:55:00
11:15 AM,60.8,46.4,59,29.58,10.0,SSW,16.1,23.0,N/A,,Clear,210,2013-12-04 17:15:00
11:35 AM,60.8,46.4,59,29.57,10.0,SSW,12.7,17.3,N/A,,Clear,200,2013-12-04 17:35:00
11:55 AM,62.6,46.4,55,29.57,10.0,SSW,15.0,23.0,N/A,,Clear,210,2013-12-04 17:55:00
12:15 PM,62.6,46.4,55,29.57,10.0,SW,18.4,-,N/A,,Clear,220,2013-12-04 18:15:00
12:35 PM,62.6,46.4,55,29.57,10.0,SW,17.3,21.9,N/A,,Clear,230,2013-12-04 18:35:00
12:55 PM,62.6,46.4,55,29.57,10.0,SW,15.0,-,N/A,,Clear,230,2013-12-04 18:55:00
1:15 PM,60.8,44.6,55,29.58,10.0,SW,17.3,24.2,N/A,,Clear,230,2013-12-04 19:15:00
1:35 PM,60.8,44.6,55,29.59,10.0,WSW,16.1,24.2,N/A,,Clear,240,2013-12-04 19:35:00
1:55 PM,59.0,46.4,63,29.61,10.0,WSW,19.6,26.5,N/A,,Clear,250,2013-12-04 19:55:00
2:15 PM,55.4,44.6,67,29.62,10.0,WSW,19.6,26.5,N/A,,Scattered Clouds,240,2013-12-04 20:15:00
2:35 PM,53.6,44.6,72,29.64,10.0,WSW,18.4,25.3,N/A,,Mostly Cloudy,250,2013-12-04 20:35:00
2:55 PM,53.6,44.6,72,29.66,10.0,SW,17.3,20.7,N/A,,Overcast,230,2013-12-04 20:55:00
3:15 PM,51.8,44.6,76,29.68,10.0,WSW,16.1,24.2,N/A,,Overcast,250,2013-12-04 21:15:00
3:35 PM,50.0,42.8,76,29.70,10.0,WSW,20.7,25.3,N/A,,Overcast,240,2013-12-04 21:35:00
3:55 PM,48.2,42.8,82,29.71,10.0,West,17.3,21.9,N/A,,Overcast,260,2013-12-04 21:55:00
4:15 PM,46.4,41.0,81,29.72,10.0,WSW,13.8,-,N/A,,Overcast,250,2013-12-04 22:15:00
4:35 PM,46.4,41.0,81,29.73,10.0,WSW,12.7,17.3,N/A,,Overcast,250,2013-12-04 22:35:00
4:55 PM,44.6,41.0,87,29.74,10.0,West,13.8,-,N/A,,Overcast,280,2013-12-04 22:55:00
5:15 PM,44.6,41.0,87,29.76,10.0,West,10.4,16.1,N/A,,Overcast,260,2013-12-04 23:15:00
5:35 PM,42.8,39.2,87,29.77,10.0,WSW,11.5,-,N/A,,Overcast,250,2013-12-04 23:35:00
5:55 PM,42.8,39.2,87,29.79,7.0,West,11.5,17.3,N/A,,Overcast,270,2013-12-04 23:55:00
6:15 PM,41.0,37.4,87,29.80,7.0,West,11.5,17.3,N/A,,Overcast,270,2013-12-05 00:15:00
6:35 PM,41.0,37.4,87,29.83,7.0,West,12.7,20.7,N/A,,Overcast,260,2013-12-05 00:35:00
6:55 PM,41.0,35.6,81,29.82,10.0,West,10.4,-,N/A,,Overcast,270,2013-12-05 00:55:00
7:15 PM,39.2,33.8,81,29.83,10.0,West,15.0,19.6,N/A,,Overcast,270,2013-12-05 01:15:00
7:35 PM,37.4,33.8,87,29.84,10.0,West,11.5,-,N/A,,Overcast,270,2013-12-05 01:35:00
7:55 PM,37.4,33.8,87,29.84,10.0,West,11.5,-,N/A,,Overcast,270,2013-12-05 01:55:00
8:15 PM,37.4,32.0,81,29.86,10.0,West,15.0,-,N/A,,Overcast,270,2013-12-05 02:15:00
8:35 PM,35.6,32.0,87,29.87,10.0,West,11.5,-,N/A,,Overcast,260,2013-12-05 02:35:00
8:55 PM,35.6,32.0,87,29.89,10.0,West,9.2,17.3,N/A,,Overcast,270,2013-12-05 02:55:00
9:15 PM,35.6,32.0,87,29.90,10.0,West,10.4,-,N/A,,Overcast,260,2013-12-05 03:15:00
9:35 PM,33.8,32.0,93,29.89,10.0,West,12.7,16.1,N/A,,Overcast,260,2013-12-05 03:35:00
9:55 PM,33.8,30.2,87,29.90,10.0,West,12.7,-,N/A,,Overcast,260,2013-12-05 03:55:00
10:15 PM,33.8,30.2,87,29.90,10.0,West,9.2,-,N/A,,Overcast,270,2013-12-05 04:15:00
10:35 PM,33.8,30.2,87,29.91,10.0,West,11.5,-,N/A,,Overcast,270,2013-12-05 04:35:00
10:55 PM,32.0,30.2,93,29.94,10.0,WSW,10.4,-,N/A,,Overcast,250,2013-12-05 04:55:00
11:15 PM,32.0,28.4,87,29.93,10.0,West,12.7,16.1,N/A,,Overcast,280,2013-12-05 05:15:00
11:35 PM,32.0,28.4,87,29.93,10.0,WNW,12.7,19.6,N/A,,Overcast,300,2013-12-05 05:35:00
11:55 PM,32.0,28.4,87,29.95,10.0,WNW,13.8,-,N/A,,Overcast,300,2013-12-05 05:55:00